Time,TemperatureF,DewpointF,PressureIn,WindDirection,WindDirectionDegrees,WindSpeedMPH,WindSpeedGustMPH,Humidity,HourlyPrecipIn,Conditions,Clouds,dailyrainin,SoftwareType,DateUTC
2013-02-19 00:00:00,52.6,48.0,30.25,ESE,108,0.0,0.0,84,0.00,,,0.00,VWS V14.01,2013-02-19 05:00:00,
2013-02-19 00:05:00,52.5,48.0,30.24,ESE,108,0.0,0.0,85,0.00,,,0.00,VWS V14.01,2013-02-19 05:05:00,
2013-02-19 00:10:00,52.3,47.9,30.24,ESE,108,0.0,0.0,85,0.00,,,0.00,VWS V14.01,2013-02-19 05:10:00,
2013-02-19 00:15:00,52.3,48.0,30.24,ESE,108,0.0,0.0,85,0.00,,,0.00,VWS V14.01,2013-02-19 05:15:00,
2013-02-19 00:20:00,52.1,47.8,30.24,ESE,108,0.0,0.0,85,0.00,,,0.00,VWS V14.01,2013-02-19 05:20:00,
2013-02-19 00:25:00,52.0,47.7,30.24,ESE,108,0.0,0.0,85,0.00,,,0.00,VWS V14.01,2013-02-19 05:25:00,
2013-02-19 00:30:00,51.9,47.7,30.25,ESE,108,0.0,0.0,86,0.00,,,0.00,VWS V14.01,2013-02-19 05:30:00,
2013-02-19 00:35:00,51.9,47.8,30.25,ESE,108,0.0,0.0,86,0.00,,,0.00,VWS V14.01,2013-02-19 05:35:00,
2013-02-19 00:40:00,51.7,47.7,30.25,ESE,108,0.0,0.0,86,0.00,,,0.00,VWS V14.01,2013-02-19 05:40:00,
2013-02-19 00:45:00,51.6,47.7,30.25,ESE,108,0.0,0.0,87,0.00,,,0.00,VWS V14.01,2013-02-19 05:45:00,
2013-02-19 00:50:00,51.5,47.8,30.25,ESE,108,0.0,0.0,87,0.00,,,0.00,VWS V14.01,2013-02-19 05:50:00,
2013-02-19 00:55:00,51.3,47.6,30.24,ESE,108,0.0,0.0,87,0.00,,,0.00,VWS V14.01,2013-02-19 05:55:00,
2013-02-19 01:00:00,51.2,47.4,30.24,ESE,108,0.0,0.0,87,0.00,,,0.00,VWS V14.01,2013-02-19 06:00:00,
2013-02-19 01:05:00,51.1,47.4,30.24,ESE,108,0.0,0.0,87,0.00,,,0.00,VWS V14.01,2013-02-19 06:05:00,
2013-02-19 01:10:00,51.0,47.4,30.24,ESE,108,0.0,0.0,88,0.00,,,0.00,VWS V14.01,2013-02-19 06:10:00,
2013-02-19 01:15:00,50.9,47.4,30.25,ESE,108,0.0,0.0,88,0.00,,,0.00,VWS V14.01,2013-02-19 06:15:00,
2013-02-19 01:20:00,50.7,47.3,30.25,ESE,108,0.0,0.0,88,0.00,,,0.00,VWS V14.01,2013-02-19 06:20:00,
2013-02-19 01:25:00,50.6,47.2,30.25,ESE,108,0.0,0.0,88,0.00,,,0.00,VWS V14.01,2013-02-19 06:25:00,
2013-02-19 01:30:00,50.6,47.3,30.25,ESE,108,0.0,0.0,88,0.00,,,0.00,VWS V14.01,2013-02-19 06:30:00,
2013-02-19 01:35:00,50.6,47.3,30.25,ESE,108,0.0,0.0,88,0.00,,,0.00,VWS V14.01,2013-02-19 06:35:00,
2013-02-19 01:40:00,50.4,47.2,30.25,ESE,108,0.0,0.0,89,0.00,,,0.00,VWS V14.01,2013-02-19 06:40:00,
2013-02-19 01:45:00,50.3,47.1,30.25,ESE,108,0.0,0.0,89,0.00,,,0.00,VWS V14.01,2013-02-19 06:45:00,
2013-02-19 01:50:00,50.3,47.2,30.24,ESE,108,0.0,0.0,89,0.00,,,0.00,VWS V14.01,2013-02-19 06:50:00,
2013-02-19 01:55:00,50.1,47.1,30.24,ESE,108,0.0,0.0,89,0.00,,,0.00,VWS V14.01,2013-02-19 06:55:00,
2013-02-19 02:00:00,50.0,47.0,30.24,ESE,108,0.0,0.0,90,0.00,,,0.00,VWS V14.01,2013-02-19 07:00:00,
2013-02-19 02:05:00,49.8,47.0,30.24,ESE,108,0.0,0.0,90,0.00,,,0.00,VWS V14.01,2013-02-19 07:05:00,
2013-02-19 02:10:00,49.9,47.1,30.24,ESE,108,0.0,0.0,90,0.00,,,0.00,VWS V14.01,2013-02-19 07:10:00,
2013-02-19 02:15:00,49.9,47.1,30.24,ESE,108,0.0,0.0,90,0.00,,,0.00,VWS V14.01,2013-02-19 07:15:00,
2013-02-19 02:20:00,50.0,47.2,30.24,ESE,108,0.0,0.0,90,0.00,,,0.00,VWS V14.01,2013-02-19 07:20:00,
2013-02-19 02:25:00,49.9,47.2,30.24,ESE,108,0.0,0.0,90,0.00,,,0.00,VWS V14.01,2013-02-19 07:25:00,
2013-02-19 02:30:00,49.8,47.1,30.23,ESE,108,0.0,0.0,90,0.00,,,0.00,VWS V14.01,2013-02-19 07:30:00,
2013-02-19 02:35:00,49.7,47.0,30.23,ESE,108,0.0,0.0,90,0.00,,,0.00,VWS V14.01,2013-02-19 07:35:00,
2013-02-19 02:40:00,49.6,46.9,30.23,ESE,108,0.0,0.0,90,0.00,,,0.00,VWS V14.01,2013-02-19 07:40:00,
2013-02-19 02:45:00,49.6,46.9,30.23,ESE,108,0.0,0.0,90,0.00,,,0.00,VWS V14.01,2013-02-19 07:45:00,
2013-02-19 02:50:00,49.7,47.0,30.22,ESE,108,0.0,0.0,90,0.00,,,0.00,VWS V14.01,2013-02-19 07:50:00,
2013-02-19 02:55:00,49.6,46.9,30.22,ESE,108,0.0,0.0,90,0.00,,,0.00,VWS V14.01,2013-02-19 07:55:00,
2013-02-19 03:00:00,49.8,47.2,30.22,ESE,108,0.0,0.0,91,0.00,,,0.00,VWS V14.01,2013-02-19 08:00:00,
2013-02-19 03:05:00,49.7,47.1,30.22,ESE,108,0.0,0.0,91,0.00,,,0.00,VWS V14.01,2013-02-19 08:05:00,
2013-02-19 03:10:00,49.9,47.3,30.21,ESE,108,0.0,0.0,91,0.00,,,0.00,VWS V14.01,2013-02-19 08:10:00,
2013-02-19 03:15:00,49.8,47.2,30.21,ESE,108,0.0,0.0,91,0.00,,,0.00,VWS V14.01,2013-02-19 08:15:00,
2013-02-19 03:20:00,49.9,47.3,30.21,ESE,108,0.0,0.0,91,0.00,,,0.00,VWS V14.01,2013-02-19 08:20:00,
2013-02-19 03:25:00,49.8,47.2,30.21,ESE,108,0.0,0.0,91,0.00,,,0.00,VWS V14.01,2013-02-19 08:25:00,
2013-02-19 03:30:00,49.7,47.1,30.21,ESE,108,0.0,0.0,91,0.00,,,0.00,VWS V14.01,2013-02-19 08:30:00,
2013-02-19 03:35:00,49.5,46.9,30.20,ESE,108,0.0,0.0,91,0.00,,,0.00,VWS V14.01,2013-02-19 08:35:00,
2013-02-19 03:40:00,49.7,47.1,30.20,ESE,108,0.0,0.0,91,0.00,,,0.00,VWS V14.01,2013-02-19 08:40:00,
2013-02-19 03:45:00,49.6,47.0,30.20,ESE,108,0.0,0.0,91,0.00,,,0.00,VWS V14.01,2013-02-19 08:45:00,
2013-02-19 03:50:00,49.5,46.9,30.20,ESE,108,0.0,0.0,91,0.00,,,0.00,VWS V14.01,2013-02-19 08:50:00,
2013-02-19 03:55:00,49.4,46.9,30.20,ESE,108,0.0,0.0,91,0.00,,,0.00,VWS V14.01,2013-02-19 08:55:00,
2013-02-19 04:00:00,49.4,46.9,30.20,ESE,108,0.0,0.0,91,0.00,,,0.00,VWS V14.01,2013-02-19 09:00:00,
2013-02-19 04:05:00,49.2,46.7,30.20,ESE,108,0.0,0.0,91,0.00,,,0.00,VWS V14.01,2013-02-19 09:05:00,
2013-02-19 04:10:00,49.3,46.8,30.20,ESE,108,0.0,0.0,91,0.00,,,0.00,VWS V14.01,2013-02-19 09:10:00,
2013-02-19 04:15:00,49.3,46.8,30.20,ESE,108,0.0,0.0,91,0.00,,,0.00,VWS V14.01,2013-02-19 09:15:00,
2013-02-19 04:20:00,49.5,47.0,30.20,ESE,108,0.0,0.0,91,0.00,,,0.00,VWS V14.01,2013-02-19 09:20:00,
2013-02-19 04:25:00,49.5,47.0,30.20,ESE,108,0.0,0.0,91,0.00,,,0.00,VWS V14.01,2013-02-19 09:25:00,
2013-02-19 04:30:00,49.5,47.0,30.20,ESE,108,0.0,0.0,91,0.00,,,0.00,VWS V14.01,2013-02-19 09:30:00,
2013-02-19 04:35:00,49.4,47.0,30.20,ESE,108,0.0,0.0,91,0.00,,,0.00,VWS V14.01,2013-02-19 09:35:00,
2013-02-19 04:40:00,49.4,47.0,30.20,ESE,108,0.0,0.0,91,0.00,,,0.00,VWS V14.01,2013-02-19 09:40:00,
2013-02-19 04:45:00,49.5,47.1,30.19,ESE,108,0.0,0.0,91,0.00,,,0.00,VWS V14.01,2013-02-19 09:45:00,
2013-02-19 04:50:00,49.3,46.9,30.19,ESE,108,0.0,0.0,91,0.00,,,0.00,VWS V14.01,2013-02-19 09:50:00,
2013-02-19 04:55:00,49.3,46.9,30.20,ESE,108,0.0,0.0,91,0.00,,,0.00,VWS V14.01,2013-02-19 09:55:00,
2013-02-19 05:00:00,49.4,47.0,30.20,ESE,108,0.0,0.0,91,0.00,,,0.00,VWS V14.01,2013-02-19 10:00:00,
2013-02-19 05:05:00,49.4,47.0,30.20,ESE,108,0.0,0.0,91,0.00,,,0.00,VWS V14.01,2013-02-19 10:05:00,
2013-02-19 05:10:00,49.3,46.9,30.20,ESE,108,0.0,0.0,91,0.00,,,0.00,VWS V14.01,2013-02-19 10:10:00,
2013-02-19 05:15:00,49.3,46.9,30.20,ESE,108,0.0,0.0,91,0.00,,,0.00,VWS V14.01,2013-02-19 10:15:00,
2013-02-19 05:20:00,49.2,46.8,30.20,ESE,108,0.0,0.0,91,0.00,,,0.00,VWS V14.01,2013-02-19 10:20:00,
2013-02-19 05:25:00,49.2,46.8,30.20,ESE,108,0.0,0.0,91,0.00,,,0.00,VWS V14.01,2013-02-19 10:25:00,
2013-02-19 05:30:00,49.1,46.7,30.19,ESE,108,0.0,0.0,91,0.00,,,0.00,VWS V14.01,2013-02-19 10:30:00,
2013-02-19 05:35:00,49.3,46.9,30.20,ESE,108,0.0,0.0,91,0.00,,,0.00,VWS V14.01,2013-02-19 10:35:00,
2013-02-19 05:40:00,49.1,46.7,30.20,ESE,108,0.0,0.0,91,0.00,,,0.00,VWS V14.01,2013-02-19 10:40:00,
2013-02-19 05:45:00,49.2,46.8,30.20,ESE,108,0.0,0.0,92,0.00,,,0.00,VWS V14.01,2013-02-19 10:45:00,
2013-02-19 05:50:00,49.1,46.8,30.20,ESE,108,0.0,0.0,92,0.00,,,0.00,VWS V14.01,2013-02-19 10:50:00,
2013-02-19 05:55:00,49.1,46.8,30.20,ESE,108,0.0,0.0,92,0.00,,,0.00,VWS V14.01,2013-02-19 10:55:00,
2013-02-19 06:00:00,49.1,46.8,30.20,ESE,108,0.0,0.0,92,0.00,,,0.00,VWS V14.01,2013-02-19 11:00:00,
2013-02-19 06:05:00,49.1,46.8,30.20,ESE,108,0.0,0.0,92,0.00,,,0.00,VWS V14.01,2013-02-19 11:05:00,
2013-02-19 06:10:00,49.2,46.9,30.19,ESE,108,0.0,0.0,92,0.00,,,0.00,VWS V14.01,2013-02-19 11:10:00,
2013-02-19 06:15:00,49.3,47.0,30.19,ESE,108,0.0,0.0,92,0.00,,,0.00,VWS V14.01,2013-02-19 11:15:00,
2013-02-19 06:20:00,49.3,47.0,30.19,ESE,108,0.0,0.0,92,0.00,,,0.00,VWS V14.01,2013-02-19 11:20:00,
2013-02-19 06:25:00,49.4,47.1,30.19,ESE,108,0.0,0.0,92,0.00,,,0.00,VWS V14.01,2013-02-19 11:25:00,
2013-02-19 06:30:00,49.3,47.0,30.19,ESE,108,0.0,0.0,92,0.00,,,0.00,VWS V14.01,2013-02-19 11:30:00,
2013-02-19 06:35:00,49.4,47.2,30.19,ESE,108,0.0,0.0,92,0.00,,,0.00,VWS V14.01,2013-02-19 11:35:00,
2013-02-19 06:40:00,49.4,47.2,30.19,ESE,108,0.0,0.0,92,0.00,,,0.00,VWS V14.01,2013-02-19 11:40:00,
2013-02-19 06:45:00,49.4,47.2,30.19,ESE,108,0.0,0.0,92,0.00,,,0.00,VWS V14.01,2013-02-19 11:45:00,
2013-02-19 06:50:00,49.4,47.2,30.19,ESE,108,0.0,0.0,92,0.00,,,0.00,VWS V14.01,2013-02-19 11:50:00,
2013-02-19 06:55:00,49.4,47.2,30.19,ESE,108,0.0,0.0,92,0.00,,,0.00,VWS V14.01,2013-02-19 11:55:00,
2013-02-19 07:00:00,49.3,47.2,30.20,ESE,108,0.0,0.0,92,0.00,,,0.00,VWS V14.01,2013-02-19 12:00:00,
2013-02-19 07:05:00,49.4,47.3,30.20,ESE,108,0.0,0.0,92,0.00,,,0.00,VWS V14.01,2013-02-19 12:05:00,
2013-02-19 07:10:00,49.4,47.3,30.20,ESE,108,0.0,0.0,92,0.00,,,0.00,VWS V14.01,2013-02-19 12:10:00,
2013-02-19 07:15:00,49.5,47.4,30.20,ESE,108,0.0,0.0,92,0.00,,,0.00,VWS V14.01,2013-02-19 12:15:00,
2013-02-19 07:20:00,49.4,47.3,30.20,ESE,108,0.0,0.0,92,0.00,,,0.00,VWS V14.01,2013-02-19 12:20:00,
2013-02-19 07:25:00,49.4,47.3,30.19,ESE,108,0.0,0.0,92,0.00,,,0.00,VWS V14.01,2013-02-19 12:25:00,
2013-02-19 07:30:00,49.4,47.3,30.19,ESE,108,0.0,0.0,92,0.00,,,0.00,VWS V14.01,2013-02-19 12:30:00,
2013-02-19 07:35:00,49.5,47.4,30.20,ESE,108,0.0,0.0,92,0.00,,,0.00,VWS V14.01,2013-02-19 12:35:00,
2013-02-19 07:40:00,49.6,47.5,30.20,ESE,108,0.0,0.0,93,0.00,,,0.00,VWS V14.01,2013-02-19 12:40:00,
2013-02-19 07:45:00,49.7,47.7,30.20,ESE,108,0.0,0.0,93,0.00,,,0.00,VWS V14.01,2013-02-19 12:45:00,
2013-02-19 07:50:00,49.9,47.9,30.20,ESE,108,0.0,0.0,93,0.00,,,0.00,VWS V14.01,2013-02-19 12:50:00,
2013-02-19 07:55:00,50.2,48.2,30.20,ESE,108,0.0,0.0,93,0.00,,,0.00,VWS V14.01,2013-02-19 12:55:00,
2013-02-19 08:00:00,50.3,48.3,30.20,ESE,108,0.0,0.0,93,0.00,,,0.00,VWS V14.01,2013-02-19 13:00:00,
2013-02-19 08:05:00,50.7,48.8,30.20,ESE,108,0.0,0.0,93,0.00,,,0.00,VWS V14.01,2013-02-19 13:05:00,
2013-02-19 08:10:00,51.0,49.1,30.20,ESE,108,0.0,0.0,93,0.00,,,0.00,VWS V14.01,2013-02-19 13:10:00,
2013-02-19 08:15:00,51.3,49.4,30.20,ESE,108,0.0,0.0,93,0.00,,,0.00,VWS V14.01,2013-02-19 13:15:00,
2013-02-19 08:20:00,51.7,49.8,30.21,ESE,108,0.0,0.0,93,0.00,,,0.00,VWS V14.01,2013-02-19 13:20:00,
2013-02-19 08:25:00,52.2,50.4,30.21,ESE,108,0.0,0.0,93,0.00,,,0.00,VWS V14.01,2013-02-19 13:25:00,
2013-02-19 08:30:00,52.9,51.1,30.22,ESE,108,0.0,0.0,94,0.00,,,0.00,VWS V14.01,2013-02-19 13:30:00,
2013-02-19 08:35:00,53.5,51.6,30.22,ESE,108,0.0,0.0,93,0.00,,,0.00,VWS V14.01,2013-02-19 13:35:00,
2013-02-19 08:39:00,54.2,52.2,30.22,ESE,108,0.0,0.0,93,0.00,,,0.00,VWS V14.01,2013-02-19 13:39:00,
2013-02-19 08:44:00,55.3,53.2,30.22,ESE,108,0.0,0.0,93,0.00,,,0.00,VWS V14.01,2013-02-19 13:44:00,
2013-02-19 08:49:00,56.4,54.0,30.22,ESE,108,0.0,0.0,92,0.00,,,0.00,VWS V14.01,2013-02-19 13:49:00,
2013-02-19 08:54:00,57.2,54.4,30.22,ESE,108,0.0,0.0,90,0.00,,,0.00,VWS V14.01,2013-02-19 13:54:00,
2013-02-19 08:59:00,58.2,54.6,30.22,ESE,108,0.0,0.0,88,0.00,,,0.00,VWS V14.01,2013-02-19 13:59:00,
2013-02-19 09:04:00,59.1,55.2,30.22,ESE,108,0.0,0.0,87,0.00,,,0.00,VWS V14.01,2013-02-19 14:04:00,
2013-02-19 09:09:00,59.5,55.1,30.22,ESE,108,0.0,0.0,85,0.00,,,0.00,VWS V14.01,2013-02-19 14:09:00,
2013-02-19 09:14:00,60.3,55.5,30.22,ESE,108,0.0,0.0,84,0.00,,,0.00,VWS V14.01,2013-02-19 14:14:00,
2013-02-19 09:19:00,60.3,55.3,30.22,ESE,108,0.0,0.0,84,0.00,,,0.00,VWS V14.01,2013-02-19 14:19:00,
2013-02-19 09:24:00,61.2,56.0,30.21,ESE,108,0.0,0.0,83,0.00,,,0.00,VWS V14.01,2013-02-19 14:24:00,
2013-02-19 09:29:00,61.9,56.1,30.21,ESE,108,0.0,0.0,81,0.00,,,0.00,VWS V14.01,2013-02-19 14:29:00,
2013-02-19 09:34:00,62.7,56.5,30.21,ESE,108,0.0,0.0,80,0.00,,,0.00,VWS V14.01,2013-02-19 14:34:00,
2013-02-19 09:39:00,63.2,56.7,30.21,ESE,108,0.0,0.0,79,0.00,,,0.00,VWS V14.01,2013-02-19 14:39:00,
2013-02-19 09:44:00,64.0,57.2,30.22,ESE,108,0.0,0.0,78,0.00,,,0.00,VWS V14.01,2013-02-19 14:44:00,
2013-02-19 09:49:00,64.7,57.0,30.22,ESE,108,0.0,0.0,76,0.00,,,0.00,VWS V14.01,2013-02-19 14:49:00,
2013-02-19 09:54:00,65.1,56.7,30.22,ESE,108,0.0,0.0,74,0.00,,,0.00,VWS V14.01,2013-02-19 14:54:00,
2013-02-19 09:59:00,65.6,57.0,30.22,ESE,108,0.0,0.0,74,0.00,,,0.00,VWS V14.01,2013-02-19 14:59:00,
2013-02-19 10:04:00,66.6,57.9,30.22,WSW,256,0.0,4.8,74,0.00,,,0.00,VWS V14.01,2013-02-19 15:04:00,
2013-02-19 10:09:00,67.2,57.3,30.22,South,186,0.0,5.4,71,0.00,,,0.00,VWS V14.01,2013-02-19 15:09:00,
2013-02-19 10:14:00,68.1,57.8,30.21,ESE,120,0.0,0.0,70,0.00,,,0.00,VWS V14.01,2013-02-19 15:14:00,
2013-02-19 10:19:00,68.8,58.2,30.21,ESE,120,0.0,0.0,69,0.00,,,0.00,VWS V14.01,2013-02-19 15:19:00,
2013-02-19 10:24:00,69.4,57.9,30.21,SW,218,0.0,0.0,67,0.00,,,0.00,VWS V14.01,2013-02-19 15:24:00,
2013-02-19 10:29:00,70.0,57.9,30.21,SW,218,0.0,0.0,66,0.00,,,0.00,VWS V14.01,2013-02-19 15:29:00,
2013-02-19 10:34:00,70.6,57.5,30.21,SSW,194,0.0,4.3,63,0.00,,,0.00,VWS V14.01,2013-02-19 15:34:00,
2013-02-19 10:39:00,71.3,57.3,30.21,South,174,0.0,0.0,61,0.00,,,0.00,VWS V14.01,2013-02-19 15:39:00,
2013-02-19 10:44:00,72.0,57.8,30.20,South,174,0.0,0.0,61,0.00,,,0.00,VWS V14.01,2013-02-19 15:44:00,
2013-02-19 10:49:00,72.5,57.4,30.20,South,174,0.0,0.0,59,0.00,,,0.00,VWS V14.01,2013-02-19 15:49:00,
2013-02-19 10:54:00,73.0,56.9,30.20,South,186,0.0,0.0,57,0.00,,,0.00,VWS V14.01,2013-02-19 15:54:00,
2013-02-19 10:59:00,73.5,57.1,30.20,SSW,208,3.4,3.4,56,0.00,,,0.00,VWS V14.01,2013-02-19 15:59:00,
2013-02-19 11:04:00,73.8,56.8,30.20,South,169,0.0,0.0,55,0.00,,,0.00,VWS V14.01,2013-02-19 16:04:00,
2013-02-19 11:09:00,74.1,56.4,30.20,SSW,198,2.8,5.8,54,0.00,,,0.00,VWS V14.01,2013-02-19 16:09:00,
2013-02-19 11:14:00,74.3,56.3,30.20,South,187,4.2,4.2,54,0.00,,,0.00,VWS V14.01,2013-02-19 16:14:00,
2013-02-19 11:19:00,75.0,56.4,30.20,SSE,158,5.8,5.8,52,0.00,,,0.00,VWS V14.01,2013-02-19 16:19:00,
2013-02-19 11:24:00,74.9,56.7,30.20,SE,128,0.0,4.1,53,0.00,,,0.00,VWS V14.01,2013-02-19 16:24:00,
2013-02-19 11:29:00,75.0,56.4,30.19,South,187,5.9,6.2,52,0.00,,,0.00,VWS V14.01,2013-02-19 16:29:00,
2013-02-19 11:34:00,74.8,56.5,30.19,SE,124,0.0,0.0,53,0.00,,,0.00,VWS V14.01,2013-02-19 16:34:00,
2013-02-19 11:39:00,75.1,57.1,30.19,SSE,148,0.0,0.0,54,0.00,,,0.00,VWS V14.01,2013-02-19 16:39:00,
2013-02-19 11:44:00,75.3,57.2,30.19,SSE,167,3.4,4.1,53,0.00,,,0.00,VWS V14.01,2013-02-19 16:44:00,
2013-02-19 11:49:00,75.8,57.1,30.19,SSW,204,0.0,0.0,52,0.00,,,0.00,VWS V14.01,2013-02-19 16:49:00,
2013-02-19 11:54:00,76.0,57.0,30.18,WNW,297,4.6,8.6,52,0.00,,,0.00,VWS V14.01,2013-02-19 16:54:00,
2013-02-19 11:59:00,76.2,57.1,30.18,South,174,0.0,3.5,52,0.00,,,0.00,VWS V14.01,2013-02-19 16:59:00,
2013-02-19 12:04:00,76.3,57.1,30.18,WSW,256,0.0,0.0,51,0.00,,,0.00,VWS V14.01,2013-02-19 17:04:00,
2013-02-19 12:09:00,76.3,57.1,30.18,WSW,256,0.0,0.0,51,0.00,,,0.00,VWS V14.01,2013-02-19 17:09:00,
2013-02-19 12:14:00,76.1,56.3,30.18,SSW,193,0.0,4.3,50,0.00,,,0.00,VWS V14.01,2013-02-19 17:14:00,
2013-02-19 12:19:00,76.2,57.0,30.18,SW,222,0.0,0.0,52,0.00,,,0.00,VWS V14.01,2013-02-19 17:19:00,
2013-02-19 12:24:00,76.1,57.2,30.18,South,173,0.0,8.9,52,0.00,,,0.00,VWS V14.01,2013-02-19 17:24:00,
2013-02-19 12:29:00,76.2,57.4,30.17,South,173,0.0,0.0,52,0.00,,,0.00,VWS V14.01,2013-02-19 17:29:00,
2013-02-19 12:34:00,76.5,57.9,30.17,South,173,0.0,0.0,53,0.00,,,0.00,VWS V14.01,2013-02-19 17:34:00,
2013-02-19 12:39:00,76.7,57.1,30.16,SW,215,5.9,5.9,51,0.00,,,0.00,VWS V14.01,2013-02-19 17:39:00,
2013-02-19 12:44:00,77.0,57.3,30.16,SW,224,0.0,1.2,51,0.00,,,0.00,VWS V14.01,2013-02-19 17:44:00,
2013-02-19 12:49:00,77.1,57.2,30.15,SSE,163,0.0,2.0,50,0.00,,,0.00,VWS V14.01,2013-02-19 17:49:00,
2013-02-19 12:54:00,76.9,56.9,30.15,SSE,163,0.0,4.5,50,0.00,,,0.00,VWS V14.01,2013-02-19 17:54:00,
2013-02-19 12:59:00,76.9,57.5,30.15,WNW,284,0.0,9.1,51,0.00,,,0.00,VWS V14.01,2013-02-19 17:59:00,
2013-02-19 13:04:00,77.2,57.6,30.14,West,262,4.6,6.4,51,0.00,,,0.00,VWS V14.01,2013-02-19 18:04:00,
2013-02-19 13:09:00,77.3,57.6,30.13,North,357,0.0,0.0,51,0.00,,,0.00,VWS V14.01,2013-02-19 18:09:00,
2013-02-19 13:14:00,77.4,56.9,30.13,North,359,0.0,7.6,49,0.00,,,0.00,VWS V14.01,2013-02-19 18:14:00,
2013-02-19 13:19:00,77.4,57.5,30.13,SW,222,0.0,8.1,50,0.00,,,0.00,VWS V14.01,2013-02-19 18:19:00,
2013-02-19 13:24:00,77.4,57.2,30.13,SW,222,0.0,0.0,50,0.00,,,0.00,VWS V14.01,2013-02-19 18:24:00,
2013-02-19 13:29:00,77.4,57.4,30.12,SW,222,0.0,0.0,50,0.00,,,0.00,VWS V14.01,2013-02-19 18:29:00,
2013-02-19 13:34:00,77.8,58.4,30.12,West,259,0.0,2.7,51,0.00,,,0.00,VWS V14.01,2013-02-19 18:34:00,
2013-02-19 13:39:00,78.0,57.9,30.12,South,179,0.0,3.1,50,0.00,,,0.00,VWS V14.01,2013-02-19 18:39:00,
2013-02-19 13:44:00,78.1,57.8,30.12,SSW,210,0.0,0.0,50,0.00,,,0.00,VWS V14.01,2013-02-19 18:44:00,
2013-02-19 13:49:00,78.1,58.0,30.12,WNW,302,0.0,6.1,50,0.00,,,0.00,VWS V14.01,2013-02-19 18:49:00,
2013-02-19 13:54:00,78.0,58.3,30.11,SW,225,0.0,0.0,51,0.00,,,0.00,VWS V14.01,2013-02-19 18:54:00,
2013-02-19 13:59:00,78.0,58.4,30.11,SW,225,0.0,0.0,51,0.00,,,0.00,VWS V14.01,2013-02-19 18:59:00,
2013-02-19 14:04:00,77.8,58.0,30.11,SW,233,0.0,0.0,50,0.00,,,0.00,VWS V14.01,2013-02-19 19:04:00,
2013-02-19 14:09:00,78.1,58.4,30.11,West,262,5.7,5.7,51,0.00,,,0.00,VWS V14.01,2013-02-19 19:09:00,
2013-02-19 14:14:00,78.1,58.0,30.11,SSW,201,0.0,6.3,50,0.00,,,0.00,VWS V14.01,2013-02-19 19:14:00,
2013-02-19 14:19:00,77.5,57.9,30.10,NW,309,0.0,12.9,51,0.00,,,0.00,VWS V14.01,2013-02-19 19:19:00,
2013-02-19 14:24:00,77.7,57.9,30.10,SW,221,0.0,0.0,50,0.00,,,0.00,VWS V14.01,2013-02-19 19:24:00,
2013-02-19 14:29:00,78.0,58.1,30.10,SSE,159,0.0,2.4,50,0.00,,,0.00,VWS V14.01,2013-02-19 19:29:00,
2013-02-19 14:34:00,78.1,58.0,30.10,North,359,0.0,5.6,50,0.00,,,0.00,VWS V14.01,2013-02-19 19:34:00,
2013-02-19 14:39:00,78.1,58.5,30.10,North,8,0.0,0.0,51,0.00,,,0.00,VWS V14.01,2013-02-19 19:39:00,
2013-02-19 14:43:00,78.2,58.1,30.09,NNW,335,5.8,9.9,50,0.00,,,0.00,VWS V14.01,2013-02-19 19:43:00,
2013-02-19 14:48:00,78.4,58.0,30.10,WNW,298,7.9,7.9,50,0.00,,,0.00,VWS V14.01,2013-02-19 19:48:00,
2013-02-19 14:53:00,78.3,58.0,30.09,WNW,295,0.0,0.0,50,0.00,,,0.00,VWS V14.01,2013-02-19 19:53:00,
2013-02-19 14:58:00,78.1,57.7,30.09,South,174,0.0,8.9,50,0.00,,,0.00,VWS V14.01,2013-02-19 19:58:00,
2013-02-19 15:03:00,78.0,57.9,30.09,SW,231,0.0,12.6,50,0.00,,,0.00,VWS V14.01,2013-02-19 20:03:00,
2013-02-19 15:08:00,78.0,57.7,30.09,West,269,0.0,3.5,50,0.00,,,0.00,VWS V14.01,2013-02-19 20:08:00,
2013-02-19 15:13:00,77.7,57.4,30.09,SW,225,5.7,14.5,50,0.00,,,0.00,VWS V14.01,2013-02-19 20:13:00,
2013-02-19 15:18:00,77.7,57.8,30.09,NW,322,7.7,7.7,50,0.00,,,0.00,VWS V14.01,2013-02-19 20:18:00,
2013-02-19 15:23:00,77.4,57.4,30.08,North,4,0.0,6.2,50,0.00,,,0.00,VWS V14.01,2013-02-19 20:23:00,
2013-02-19 15:28:00,77.4,57.5,30.08,NNW,329,0.0,8.7,50,0.00,,,0.00,VWS V14.01,2013-02-19 20:28:00,
2013-02-19 15:33:00,77.5,57.9,30.08,North,1,0.0,0.0,51,0.00,,,0.00,VWS V14.01,2013-02-19 20:33:00,
2013-02-19 15:38:00,77.4,57.4,30.08,NNE,21,0.0,5.9,50,0.00,,,0.00,VWS V14.01,2013-02-19 20:38:00,
2013-02-19 15:43:00,77.7,57.5,30.08,West,262,7.3,9.0,50,0.00,,,0.00,VWS V14.01,2013-02-19 20:43:00,
2013-02-19 15:48:00,78.0,57.6,30.08,North,7,0.0,8.5,50,0.00,,,0.00,VWS V14.01,2013-02-19 20:48:00,
2013-02-19 15:53:00,78.1,57.2,30.08,North,1,0.0,6.1,49,0.00,,,0.00,VWS V14.01,2013-02-19 20:53:00,
2013-02-19 15:58:00,78.2,57.2,30.08,North,350,0.0,2.9,48,0.00,,,0.00,VWS V14.01,2013-02-19 20:58:00,
2013-02-19 16:03:00,78.2,57.2,30.07,North,350,0.0,0.0,48,0.00,,,0.00,VWS V14.01,2013-02-19 21:03:00,
2013-02-19 16:08:00,78.4,57.2,30.07,NW,311,5.0,10.4,48,0.00,,,0.00,VWS V14.01,2013-02-19 21:08:00,
2013-02-19 16:13:00,78.4,57.2,30.07,WNW,287,5.7,6.3,48,0.00,,,0.00,VWS V14.01,2013-02-19 21:13:00,
2013-02-19 16:18:00,78.4,57.2,30.07,WNW,288,0.0,0.0,48,0.00,,,0.00,VWS V14.01,2013-02-19 21:18:00,
2013-02-19 16:23:00,78.5,57.1,30.07,WSW,242,0.0,9.2,48,0.00,,,0.00,VWS V14.01,2013-02-19 21:23:00,
2013-02-19 16:28:00,78.3,57.5,30.07,WNW,291,6.6,9.8,49,0.00,,,0.00,VWS V14.01,2013-02-19 21:28:00,
2013-02-19 16:33:00,78.3,57.6,30.07,SE,135,0.0,0.0,49,0.00,,,0.00,VWS V14.01,2013-02-19 21:33:00,
2013-02-19 16:38:00,78.2,57.6,30.07,SSW,198,0.0,3.4,49,0.00,,,0.00,VWS V14.01,2013-02-19 21:38:00,
2013-02-19 16:43:00,78.2,57.5,30.07,SW,224,2.5,5.7,49,0.00,,,0.00,VWS V14.01,2013-02-19 21:43:00,
2013-02-19 16:48:00,77.9,57.6,30.07,SW,229,5.0,5.7,50,0.00,,,0.00,VWS V14.01,2013-02-19 21:48:00,
2013-02-19 16:53:00,77.9,57.7,30.07,SSW,198,0.0,5.7,50,0.00,,,0.00,VWS V14.01,2013-02-19 21:53:00,
2013-02-19 16:58:00,77.7,58.0,30.07,WSW,240,0.0,0.0,51,0.00,,,0.00,VWS V14.01,2013-02-19 21:58:00,
2013-02-19 17:03:00,77.7,57.8,30.07,South,184,0.0,2.4,50,0.00,,,0.00,VWS V14.01,2013-02-19 22:03:00,
2013-02-19 17:08:00,77.1,57.3,30.07,South,169,0.0,4.7,50,0.00,,,0.00,VWS V14.01,2013-02-19 22:08:00,
2013-02-19 17:13:00,77.0,57.6,30.07,West,270,0.0,4.4,51,0.00,,,0.00,VWS V14.01,2013-02-19 22:13:00,
2013-02-19 17:18:00,76.9,57.7,30.07,West,270,0.0,0.0,52,0.00,,,0.00,VWS V14.01,2013-02-19 22:18:00,
2013-02-19 17:23:00,76.8,57.7,30.07,SSW,202,3.4,6.7,52,0.00,,,0.00,VWS V14.01,2013-02-19 22:23:00,
2013-02-19 17:28:00,76.5,57.6,30.07,West,260,3.2,6.6,52,0.00,,,0.00,VWS V14.01,2013-02-19 22:28:00,
2013-02-19 17:33:00,76.3,57.6,30.07,West,280,0.0,0.0,52,0.00,,,0.00,VWS V14.01,2013-02-19 22:33:00,
2013-02-19 17:38:00,76.1,57.5,30.08,SSW,197,0.0,0.0,53,0.00,,,0.00,VWS V14.01,2013-02-19 22:38:00,
2013-02-19 17:43:00,76.0,57.5,30.08,NW,318,0.0,0.0,53,0.00,,,0.00,VWS V14.01,2013-02-19 22:43:00,
2013-02-19 17:48:00,75.7,57.5,30.08,NW,318,0.0,0.0,53,0.00,,,0.00,VWS V14.01,2013-02-19 22:48:00,
2013-02-19 17:53:00,75.7,57.6,30.08,NW,318,0.0,0.0,54,0.00,,,0.00,VWS V14.01,2013-02-19 22:53:00,
2013-02-19 17:58:00,75.5,57.7,30.08,NW,318,0.0,0.0,54,0.00,,,0.00,VWS V14.01,2013-02-19 22:58:00,
2013-02-19 18:03:00,75.2,57.6,30.08,NW,318,0.0,0.0,54,0.00,,,0.00,VWS V14.01,2013-02-19 23:03:00,
2013-02-19 18:08:00,74.9,57.9,30.08,WSW,250,0.0,0.0,56,0.00,,,0.00,VWS V14.01,2013-02-19 23:08:00,
2013-02-19 18:13:00,74.7,57.6,30.08,WSW,250,0.0,0.0,55,0.00,,,0.00,VWS V14.01,2013-02-19 23:13:00,
2013-02-19 18:18:00,74.5,57.6,30.08,WSW,250,0.0,0.0,56,0.00,,,0.00,VWS V14.01,2013-02-19 23:18:00,
2013-02-19 18:23:00,74.3,57.6,30.08,WSW,250,0.0,0.0,56,0.00,,,0.00,VWS V14.01,2013-02-19 23:23:00,
2013-02-19 18:28:00,74.0,57.6,30.08,WSW,250,0.0,0.0,57,0.00,,,0.00,VWS V14.01,2013-02-19 23:28:00,
2013-02-19 18:33:00,73.9,57.8,30.09,WSW,250,0.0,0.0,57,0.00,,,0.00,VWS V14.01,2013-02-19 23:33:00,
2013-02-19 18:38:00,73.6,57.7,30.09,WSW,250,0.0,0.0,58,0.00,,,0.00,VWS V14.01,2013-02-19 23:38:00,
2013-02-19 18:43:00,73.5,58.0,30.09,WSW,250,0.0,0.0,58,0.00,,,0.00,VWS V14.01,2013-02-19 23:43:00,
2013-02-19 18:48:00,73.1,57.7,30.09,WSW,250,0.0,0.0,58,0.00,,,0.00,VWS V14.01,2013-02-19 23:48:00,
2013-02-19 18:53:00,73.0,57.8,30.09,WSW,250,0.0,0.0,59,0.00,,,0.00,VWS V14.01,2013-02-19 23:53:00,
2013-02-19 18:58:00,72.8,57.9,30.09,WSW,250,0.0,0.0,60,0.00,,,0.00,VWS V14.01,2013-02-19 23:58:00,
2013-02-19 19:03:00,72.7,58.0,30.09,WSW,250,0.0,0.0,60,0.00,,,0.00,VWS V14.01,2013-02-20 00:03:00,
2013-02-19 19:08:00,72.5,58.0,30.09,WSW,250,0.0,0.0,60,0.00,,,0.00,VWS V14.01,2013-02-20 00:08:00,
2013-02-19 19:13:00,72.3,58.0,30.09,WSW,250,0.0,0.0,61,0.00,,,0.00,VWS V14.01,2013-02-20 00:13:00,
2013-02-19 19:18:00,72.1,58.2,30.09,WSW,250,0.0,0.0,62,0.00,,,0.00,VWS V14.01,2013-02-20 00:18:00,
2013-02-19 19:23:00,71.9,58.5,30.09,WSW,250,0.0,0.0,63,0.00,,,0.00,VWS V14.01,2013-02-20 00:23:00,
2013-02-19 19:28:00,71.8,58.5,30.10,WSW,250,0.0,0.0,63,0.00,,,0.00,VWS V14.01,2013-02-20 00:28:00,
2013-02-19 19:33:00,71.7,58.5,30.10,WSW,250,0.0,0.0,63,0.00,,,0.00,VWS V14.01,2013-02-20 00:33:00,
2013-02-19 19:38:00,71.5,58.6,30.10,WSW,250,0.0,0.0,64,0.00,,,0.00,VWS V14.01,2013-02-20 00:38:00,
2013-02-19 19:43:00,71.4,58.6,30.10,WSW,250,0.0,0.0,64,0.00,,,0.00,VWS V14.01,2013-02-20 00:43:00,
2013-02-19 19:48:00,71.1,58.4,30.10,WSW,250,0.0,0.0,64,0.00,,,0.00,VWS V14.01,2013-02-20 00:48:00,
2013-02-19 19:53:00,70.9,58.3,30.10,WSW,250,0.0,0.0,64,0.00,,,0.00,VWS V14.01,2013-02-20 00:53:00,
2013-02-19 19:58:00,70.8,58.3,30.11,WSW,250,0.0,0.0,65,0.00,,,0.00,VWS V14.01,2013-02-20 00:58:00,
2013-02-19 20:03:00,70.7,58.3,30.10,WSW,250,0.0,0.0,65,0.00,,,0.00,VWS V14.01,2013-02-20 01:03:00,
2013-02-19 20:07:00,70.6,58.4,30.11,WSW,250,0.0,0.0,65,0.00,,,0.00,VWS V14.01,2013-02-20 01:07:00,
2013-02-19 20:12:00,70.6,58.6,30.10,WSW,250,0.0,0.0,66,0.00,,,0.00,VWS V14.01,2013-02-20 01:12:00,
2013-02-19 20:17:00,70.4,58.5,30.11,WSW,250,0.0,0.0,66,0.00,,,0.00,VWS V14.01,2013-02-20 01:17:00,
2013-02-19 20:22:00,70.4,58.6,30.11,WSW,250,0.0,0.0,66,0.00,,,0.00,VWS V14.01,2013-02-20 01:22:00,
2013-02-19 20:27:00,70.3,58.6,30.11,WSW,250,0.0,0.0,66,0.00,,,0.00,VWS V14.01,2013-02-20 01:27:00,
2013-02-19 20:32:00,70.1,58.5,30.11,WSW,250,0.0,0.0,67,0.00,,,0.00,VWS V14.01,2013-02-20 01:32:00,
2013-02-19 20:37:00,69.9,58.5,30.11,WSW,250,0.0,0.0,67,0.00,,,0.00,VWS V14.01,2013-02-20 01:37:00,
2013-02-19 20:42:00,69.8,58.6,30.11,WSW,250,0.0,0.0,68,0.00,,,0.00,VWS V14.01,2013-02-20 01:42:00,
2013-02-19 20:47:00,69.5,58.4,30.11,WSW,250,0.0,0.0,68,0.00,,,0.00,VWS V14.01,2013-02-20 01:47:00,
2013-02-19 20:52:00,69.4,58.6,30.11,WSW,250,0.0,0.0,68,0.00,,,0.00,VWS V14.01,2013-02-20 01:52:00,
2013-02-19 20:57:00,69.1,58.3,30.11,WSW,250,0.0,0.0,69,0.00,,,0.00,VWS V14.01,2013-02-20 01:57:00,
2013-02-19 21:02:00,68.8,58.3,30.11,WSW,250,0.0,0.0,69,0.00,,,0.00,VWS V14.01,2013-02-20 02:02:00,
2013-02-19 21:07:00,68.6,58.3,30.11,WSW,250,0.0,0.0,70,0.00,,,0.00,VWS V14.01,2013-02-20 02:07:00,
2013-02-19 21:12:00,68.4,58.2,30.11,WSW,250,0.0,0.0,70,0.00,,,0.00,VWS V14.01,2013-02-20 02:12:00,
2013-02-19 21:17:00,68.2,58.2,30.11,WSW,250,0.0,0.0,70,0.00,,,0.00,VWS V14.01,2013-02-20 02:17:00,
2013-02-19 21:22:00,68.1,58.2,30.12,WSW,250,0.0,0.0,71,0.00,,,0.00,VWS V14.01,2013-02-20 02:22:00,
2013-02-19 21:27:00,68.0,58.3,30.12,WSW,250,0.0,0.0,71,0.00,,,0.00,VWS V14.01,2013-02-20 02:27:00,
2013-02-19 21:32:00,67.8,58.2,30.12,WSW,250,0.0,0.0,71,0.00,,,0.00,VWS V14.01,2013-02-20 02:32:00,
2013-02-19 21:37:00,67.4,58.0,30.12,WSW,250,0.0,0.0,72,0.00,,,0.00,VWS V14.01,2013-02-20 02:37:00,
2013-02-19 21:42:00,67.6,58.2,30.12,WSW,250,0.0,0.0,72,0.00,,,0.00,VWS V14.01,2013-02-20 02:42:00,
2013-02-19 21:47:00,67.2,58.0,30.12,WSW,250,0.0,0.0,72,0.00,,,0.00,VWS V14.01,2013-02-20 02:47:00,
2013-02-19 21:52:00,67.3,58.2,30.12,WSW,250,0.0,0.0,72,0.00,,,0.00,VWS V14.01,2013-02-20 02:52:00,
2013-02-19 21:57:00,67.1,58.1,30.12,WSW,250,0.0,0.0,73,0.00,,,0.00,VWS V14.01,2013-02-20 02:57:00,
2013-02-19 22:02:00,66.9,58.0,30.12,WSW,250,0.0,0.0,73,0.00,,,0.00,VWS V14.01,2013-02-20 03:02:00,
2013-02-19 22:07:00,66.9,58.2,30.11,WSW,250,0.0,0.0,74,0.00,,,0.00,VWS V14.01,2013-02-20 03:07:00,
2013-02-19 22:12:00,66.4,57.8,30.11,WSW,250,0.0,0.0,74,0.00,,,0.00,VWS V14.01,2013-02-20 03:12:00,
2013-02-19 22:17:00,66.1,57.7,30.11,WSW,250,0.0,0.0,74,0.00,,,0.00,VWS V14.01,2013-02-20 03:17:00,
2013-02-19 22:22:00,66.3,58.0,30.12,WSW,250,0.0,0.0,74,0.00,,,0.00,VWS V14.01,2013-02-20 03:22:00,
2013-02-19 22:27:00,66.1,57.8,30.11,WSW,250,0.0,0.0,75,0.00,,,0.00,VWS V14.01,2013-02-20 03:27:00,
2013-02-19 22:32:00,66.1,58.0,30.11,WSW,250,0.0,0.0,75,0.00,,,0.00,VWS V14.01,2013-02-20 03:32:00,
2013-02-19 22:37:00,65.8,57.8,30.11,WSW,250,0.0,0.0,76,0.00,,,0.00,VWS V14.01,2013-02-20 03:37:00,
2013-02-19 22:42:00,65.7,57.8,30.11,WSW,250,0.0,0.0,76,0.00,,,0.00,VWS V14.01,2013-02-20 03:42:00,
2013-02-19 22:47:00,66.0,58.2,30.10,WSW,250,0.0,0.0,76,0.00,,,0.00,VWS V14.01,2013-02-20 03:47:00,
2013-02-19 22:52:00,65.7,58.0,30.11,WSW,250,0.0,0.0,76,0.00,,,0.00,VWS V14.01,2013-02-20 03:52:00,
2013-02-19 22:57:00,65.5,58.0,30.11,WSW,250,0.0,0.0,77,0.00,,,0.00,VWS V14.01,2013-02-20 03:57:00,
2013-02-19 23:02:00,65.2,57.8,30.11,WSW,250,0.0,0.0,77,0.00,,,0.00,VWS V14.01,2013-02-20 04:02:00,
2013-02-19 23:07:00,65.0,57.7,30.11,WSW,250,0.0,0.0,77,0.00,,,0.00,VWS V14.01,2013-02-20 04:07:00,
2013-02-19 23:12:00,65.1,57.9,30.11,WSW,250,0.0,0.0,78,0.00,,,0.00,VWS V14.01,2013-02-20 04:12:00,
2013-02-19 23:17:00,65.0,57.9,30.11,WSW,250,0.0,0.0,78,0.00,,,0.00,VWS V14.01,2013-02-20 04:17:00,
2013-02-19 23:22:00,64.8,57.8,30.11,WSW,250,0.0,0.0,78,0.00,,,0.00,VWS V14.01,2013-02-20 04:22:00,
2013-02-19 23:27:00,64.8,57.9,30.10,WSW,250,0.0,0.0,78,0.00,,,0.00,VWS V14.01,2013-02-20 04:27:00,
2013-02-19 23:32:00,64.7,57.9,30.10,WSW,250,0.0,0.0,79,0.00,,,0.00,VWS V14.01,2013-02-20 04:32:00,
2013-02-19 23:37:00,64.7,58.0,30.10,WSW,250,0.0,0.0,79,0.00,,,0.00,VWS V14.01,2013-02-20 04:37:00,
2013-02-19 23:42:00,64.3,57.6,30.10,WSW,250,0.0,0.0,79,0.00,,,0.00,VWS V14.01,2013-02-20 04:42:00,
2013-02-19 23:47:00,64.2,57.6,30.10,WSW,250,0.0,0.0,79,0.00,,,0.00,VWS V14.01,2013-02-20 04:47:00,
2013-02-19 23:52:00,64.3,57.8,30.10,WSW,250,0.0,0.0,80,0.00,,,0.00,VWS V14.01,2013-02-20 04:52:00,
2013-02-19 23:57:00,63.8,57.5,30.09,WSW,250,0.0,0.0,80,0.00,,,0.00,VWS V14.01,2013-02-20 04:57:00,